Location: Peebles
(55.6412°N, 3.1714°W)
Time: 08:08:12
(UTC+01:00)

ATLAS 5 CENTAUR R/B - Pass Details

Date: 30 January 2022
Orbit: 335 x 13907 km, 60.8° (Epoch: 27 May)

Event Time Altitude Azimuth Distance (km) Brightness Sun altitude
Rises 00:53:16 0° 145° (SE) 18,612 9.3 -51.7°
Reaches altitude 10° 01:17:16 10° 139° (SE) 15,763 8.9 -50.8°
Maximum altitude 01:58:00 26° 104° (ESE) 8,427 7.8 -48.2°
Drops below altitude 10° 02:14:07 10° 59° (ENE) 6,150 7.6 -46.9°
Sets 02:18:01 0° 47° (NE) 6,173 7.9 -46.5°
